User: anonymous   Login
Location: Twentynine Palms Airport
(34.1316°N, 115.9458°W)
Time: 05:22:11
(UTC-07:00)
Language:

Oscar 19 - Orbit

View from above orbital plane
View from above orbital plane
View from above satellite
View from above satellite

Ground track
Ground track

The orbit data is extracted from the following two-line orbital elements,

1 20442U 90005G   16125.42012027  .00000041  00000-0  30925-4 0  9997
2 20442  98.5415  60.9763 0010587 276.8594  83.1385 14.32813086373084
Epoch (UTC): 04 May 2016 10:04:58
Eccentricity: 0.0010587
inclination: 98.5415°
perigee height: 775 km
apogee height: 790 km
right ascension of ascending node: 60.9763°
argument of perigee: 276.8594°
revolutions per day: 14.32813086
mean anomaly at epoch: 83.1385°
orbit number at epoch: 37308

The dashed part of the orbit path shows where the satellite is in the earth's shadow,  

DLR